FW9813 Weather Reports


Display with metric or nautical units.
time (UTC)temp
F
wind
direction
speed
MPH
gust
MPH
rain 1hr
in
rain 24hr
in
rain mn
in
humidity
%
barometer
mb
20260905040056 66 346 1.0 3.0 0.00 0.00 0.00 86 1015.9
20260905034549 66 0 1.0 4.0 0.00 0.00 0.00 86 1015.9
20260905033052 67 360 1.0 8.0 0.00 0.00 0.00 85 1015.9
20260905031549 67 352 2.0 5.0 0.00 0.00 0.00 84 1015.7
20260905030052 68 51 2.0 10.0 0.00 0.00 0.00 83 1015.6
20260905024548 69 0 1.0 5.0 0.00 0.00 0.00 82 1015.6
20260905023047 70 348 0.0 6.0 0.00 0.00 0.00 81 1015.4
20260905021548 70 343 2.0 9.0 0.00 0.00 0.00 80 1015.3
20260905020055 72 315 2.0 8.0 0.00 0.00 0.00 78 1015.1
20260905014549 73 17 1.0 7.0 0.00 0.00 0.00 77 1015.0
20260905013047 74 345 2.0 5.0 0.00 0.00 0.00 76 1014.8
20260905011548 75 11 2.0 7.0 0.00 0.00 0.00 74 1014.5
20260905004551 78 315 1.0 5.0 0.00 0.00 0.00 72 1014.3
20260905003049 79 343 1.0 5.0 0.00 0.00 0.00 70 1014.1
20260905001544 79 348 1.0 3.0 0.00 0.00 0.00 69 1014.1
20260905000054 80 346 1.0 9.0 0.00 0.00 0.00 68 1013.9
20260904234551 81 344 1.0 4.0 0.00 0.00 0.00 68 1013.8
20260904233047 81 340 2.0 6.0 0.00 0.00 0.00 67 1013.7
20260904231559 82 346 1.0 8.0 0.00 0.00 0.00 66 1013.6
20260904230107 82 347 1.0 5.0 0.00 0.00 0.00 65 1013.6
20260904224604 83 340 3.0 9.0 0.00 0.00 0.00 65 1013.5
20260904223048 83 9 2.0 8.0 0.00 0.00 0.00 64 1013.3
20260904221548 83 325 3.0 6.0 0.00 0.00 0.00 64 1013.3
20260904220100 84 352 2.0 5.0 0.00 0.00 0.00 63 1013.0
20260904214555 84 345 1.0 6.0 0.00 0.00 0.00 64 1012.9
20260904213050 84 298 3.0 8.0 0.00 0.00 0.00 63 1012.9
20260904211600 84 0 2.0 8.0 0.00 0.00 0.00 64 1012.9
20260904210053 84 310 1.0 5.0 0.00 0.00 0.00 64 1013.0
20260904204557 83 20 2.0 6.0 0.00 0.00 0.00 65 1013.0
20260904203049 83 38 0.0 5.0 0.00 0.00 0.00 66 1013.1
20260904201550 82 350 3.0 6.0 0.00 0.00 0.00 66 1013.2
20260904200047 81 311 1.0 6.0 0.00 0.00 0.00 69 1013.3
20260904194558 80 346 2.0 8.0 0.00 0.00 0.00 68 1013.4
20260904193055 79 336 2.0 6.0 0.00 0.00 0.00 70 1013.4
20260904191546 78 347 2.0 8.0 0.00 0.00 0.00 75 1013.4
20260904190048 77 306 2.0 5.0 0.00 0.00 0.00 76 1013.5
20260904184548 77 337 1.0 5.0 0.00 0.00 0.00 76 1013.6
20260904183048 77 331 1.0 4.0 0.00 0.00 0.00 77 1013.6
20260904181548 76 351 1.0 7.0 0.00 0.00 0.00 78 1013.6
20260904180051 75 328 1.0 8.0 0.00 0.00 0.00 80 1013.6
20260904174550 74 348 1.0 9.0 0.00 0.00 0.00 80 1013.6
20260904173045 74 344 2.0 6.0 0.00 0.00 0.00 81 1013.6
20260904171842 75 213 1.0 6.0 0.00 0.00 0.00 83 1013.5
20260904164553 75 352 1.0 3.0 0.00 0.00 0.00 87 1013.3
20260904163046 74 352 1.0 3.0 0.00 0.00 0.00 88 1013.0
20260904161545 73 360 1.0 4.0 0.00 0.00 0.00 89 1013.0
20260904160053 72 0 0.0 3.0 0.00 0.00 0.00 91 1012.7
20260904154552 71 171 0.0 4.0 0.00 0.00 0.00 92 1012.7
20260904153048 71 348 1.0 4.0 0.00 0.00 0.00 92 1012.6
20260904151544 71 169 0.0 3.0 0.00 0.00 0.00 92 1012.4
20260904150051 70 228 0.0 2.0 0.00 0.00 0.00 92 1012.4
20260904144547 70 208 1.0 4.0 0.00 0.00 0.00 92 1012.2
20260904143044 70 0 0.0 3.0 0.00 0.00 0.00 91 1012.1
20260904141543 69 238 0.0 3.0 0.00 0.00 0.00 91 1011.9
20260904140104 69 0 0.0 1.0 0.00 0.00 0.00 90 1011.7
20260904134554 69 0 0.0 2.0 0.00 0.00 0.00 91 1011.4
20260904133053 68 0 0.0 1.0 0.00 0.00 0.00 90 1011.5
20260904131548 68 0 0.0 2.0 0.00 0.00 0.00 91 1011.5
20260904130055 68 0 0.0 3.0 0.00 0.00 0.00 91 1011.4
20260904124558 67 0 0.0 4.0 0.00 0.00 0.00 91 1011.4
20260904123046 67 55 0.0 2.0 0.00 0.00 0.00 91 1011.4
20260904121547 67 342 1.0 3.0 0.00 0.00 0.00 90 1011.2
20260904120056 67 0 0.0 4.0 0.00 0.00 0.00 90 1011.0
20260904114549 67 0 0.0 3.0 0.00 0.00 0.00 90 1010.8
20260904113051 67 0 0.0 3.0 0.00 0.00 0.00 90 1010.8
20260904111550 68 28 1.0 4.0 0.00 0.00 0.00 89 1010.6
20260904110046 68 345 1.0 5.0 0.00 0.00 0.00 89 1010.4
20260904104552 68 338 2.0 6.0 0.00 0.00 0.00 89 1010.3
20260904103048 68 336 1.0 4.0 0.00 0.00 0.00 89 1010.4
20260904101549 69 360 2.0 8.0 0.00 0.00 0.00 90 1010.3
20260904100108 69 352 1.0 5.0 0.00 0.00 0.00 90 1010.4
20260904094550 71 333 2.0 6.0 0.00 0.00 0.00 90 1010.4
20260904093054 72 59 1.0 5.0 0.00 0.00 0.00 91 1009.9
20260904091554 72 5 1.0 3.0 0.00 0.00 0.00 91 1010.1
20260904090048 72 334 1.0 4.0 0.00 0.00 0.00 91 1010.1
20260904084603 72 331 1.0 4.0 0.00 0.00 0.00 91 1010.3
20260904083056 72 46 2.0 6.0 0.00 0.00 0.00 92 1009.9
20260904081549 72 0 0.0 0.0 0.00 0.00 0.00 90 1009.5
20260904080049 72 0 0.0 0.0 0.00 0.00 0.00 90 1009.3
20260904074550 72 0 0.0 0.0 0.00 0.00 0.00 89 1009.3
20260904073057 72 0 0.0 0.0 0.00 0.00 0.00 89 1009.4
20260904071549 73 0 0.0 0.0 0.00 0.00 0.00 88 1009.4
20260904070045 73 0 0.0 0.0 0.00 0.00 0.00 88 1009.5
20260904064555 73 0 0.0 0.0 0.00 0.00 0.00 87 1009.5
20260904063101 74 0 0.0 0.0 0.00 0.00 0.00 87 1009.5
20260904061549 74 0 0.0 2.0 0.00 0.00 0.00 86 1009.6
20260904060047 74 0 0.0 2.0 0.00 0.00 0.00 85 1009.6
20260904054549 75 0 1.0 4.0 0.00 0.00 0.00 85 1009.6
20260904053056 75 0 0.0 3.0 0.00 0.00 0.00 84 1009.5
20260904051600 75 0 0.0 4.0 0.00 0.00 0.00 83 1009.4
20260904050044 75 0 0.0 3.0 0.00 0.00 0.00 82 1009.4
20260904044549 76 0 2.0 3.0 0.00 0.00 0.00 81 1009.3
20260904043049 76 0 0.0 3.0 0.00 0.00 0.00 80 1009.3
20260904041550 77 0 0.0 3.0 0.00 0.00 0.00 78 1009.2